Theta_e
303 303 305 306 306 307 306 307 306 306 306 307 308 311 312 313 313 312 312 312 312 313 312 309 307 309 308 305 305 305 305 307 308 310 312 311 309 309 307 308 309 309 310 311 315
302 302 302 303 304 304 305 305 306 306 306 306 307 308 311 313 313 312 311 313 312 312 313 309 308 308 304 305 305 304 305 307 309 309 311 311 307 306 308 307 308 309 314 317 320
301 301 301 301 301 302 302 303 303 304 305 306 306 307 309 313 313 312 311 312 310 313 313 309 309 307 305 305 304 305 307 308 309 310 311 309 308 306 306 307 305 307 313 315 316
300 300 300 300 300 301 301 301 302 303 303 304 305 306 306 311 312 310 311 312 311 313 310 309 308 308 307 306 306 307 306 307 308 309 309 309 307 309 305 307 308 304 312 314 316
300 299 299 299 299 300 300 300 300 301 302 302 303 304 306 311 312 310 310 312 312 311 312 311 309 308 308 308 307 308 308 308 308 309 308 306 306 306 307 305 304 307 308 313 314
299 299 299 299 299 299 299 300 300 300 301 301 302 303 305 307 307 309 311 311 312 311 311 309 307 308 308 308 309 309 309 310 309 309 308 308 306 306 307 306 305 305 306 309 312
300 299 299 298 299 299 299 299 299 300 300 300 301 303 304 304 307 310 312 311 310 313 311 309 307 307 308 308 308 309 310 310 310 309 307 306 306 304 305 305 306 304 303 306 308
299 298 297 298 298 298 298 298 299 299 300 302 302 303 303 303 303 304 311 309 311 311 311 311 308 305 307 307 308 309 308 311 311 309 309 306 309 307 305 305 306 305 301 303 305
297 297 298 298 298 298 298 298 299 300 300 301 303 303 302 303 307 306 309 310 311 312 310 308 304 305 307 307 308 307 309 310 311 309 310 307 310 308 307 306 305 306 304 302 302
297 298 299 298 298 298 298 299 297 296 299 302 303 305 304 304 307 304 309 311 312 312 308 306 305 306 305 308 312 310 309 310 310 311 310 310 308 309 308 308 306 306 305 303 303
297 298 298 298 298 298 297 298 295 296 296 296 296 296 296 295 297 302 306 308 311 312 310 305 306 308 307 307 308 309 310 310 310 309 310 311 311 308 309 306 305 305 303 303 302
297 297 298 297 297 297 297 295 295 297 298 296 297 296 296 296 297 297 300 306 311 312 309 306 308 306 306 307 308 309 310 310 310 310 310 311 311 309 307 308 307 305 304 303 302
297 297 297 296 296 296 296 295 296 296 297 295 295 296 296 297 298 299 303 304 307 311 310 309 307 306 307 307 308 309 310 310 310 310 309 312 313 311 307 307 307 305 306 304 303
297 297 296 296 296 296 295 295 295 296 295 293 295 296 298 299 299 300 299 302 307 308 310 308 308 306 306 308 308 310 308 308 309 309 313 312 317 313 312 309 309 309 305 305 304
297 296 296 296 296 295 295 295 295 295 293 292 295 300 298 300 300 303 301 302 303 306 308 309 308 308 308 308 307 309 308 309 309 311 312 313 316 312 310 312 312 310 308 306 306
296 296 296 296 295 295 295 295 295 294 291 294 294 293 295 294 296 300 301 303 303 305 306 307 308 308 309 309 308 308 310 310 310 314 314 311 314 311 311 312 311 310 309 309 306
296 296 296 295 294 295 296 295 292 293 290 290 293 293 295 295 296 298 301 302 306 306 305 303 306 308 309 309 309 309 312 313 313 314 312 309 314 312 309 309 310 310 309 309 307
296 295 293 294 295 296 295 295 292 284 287 293 293 294 295 295 297 298 300 301 302 303 306 303 301 304 307 308 311 312 312 312 313 305 308 307 313 312 309 309 308 307 303 304 303
295 294 294 293 296 295 294 289 285 290 294 294 295 295 294 297 298 298 297 296 302 303 304 307 304 306 306 307 307 309 312 308 307 296 310 307 309 306 307 303 301 299 302 302 300
295 294 293 295 295 294 293 291 288 293 294 295 296 294 289 292 292 295 296 299 301 300 304 307 307 305 303 306 306 305 305 310 311 310 312 310 306 308 307 303 302 298 299 299 297
294 291 293 295 294 288 292 284 292 295 296 297 296 295 295 295 295 295 298 299 300 303 304 305 307 302 308 308 308 309 310 309 307 311 309 311 310 301 304 295 298 295 298 297 296
292 293 293 293 290 282 287 292 294 294 294 296 297 296 295 295 295 297 299 298 300 300 299 305 302 302 307 302 301 305 309 307 311 303 302 303 308 295 288 285 292 295 297 294 293
292 292 293 294 286 287 290 292 293 293 295 297 299 298 298 298 297 294 297 298 300 300 300 301 307 306 301 301 303 305 304 306 306 304 307 307 307 289 296 299 298 292 293 293 292
293 292 286 292 289 290 290 291 291 293 296 297 298 298 298 291 292 293 297 298 298 298 300 302 304 302 301 304 302 302 302 307 309 312 311 311 309 293 293 290 290 295 294 293 291
292 290 287 286 286 290 290 291 294 296 296 297 297 297 298 295 285 289 295 296 297 300 301 303 303 298 300 297 298 299 304 306 309 308 312 308 306 298 296 289 288 287 291 292 291
292 290 285 290 291 291 291 290 294 294 296 294 298 297 297 293 292 296 295 297 299 299 300 302 300 297 298 295 293 296 296 301 304 306 308 309 309 298 292 287 292 289 286 291 291
291 292 292 290 289 290 291 292 293 294 295 295 297 297 292 296 294 296 295 296 297 297 298 300 299 299 298 294 299 295 293 296 299 305 305 307 301 297 297 296 295 293 289 289 288
Wind_Speed
26 26 26 26 25 24 24 24 24 24 24 25 24 24 22 19 22 23 14 17 13 6 16 8 9 12 10 5 5 2 1 7 9 9 12 3 2 1 2 6 2 4 3 5 34
25 25 25 26 26 27 26 26 26 26 26 26 25 23 24 20 21 22 27 21 21 20 14 15 8 9 4 5 4 6 6 10 7 9 7 5 7 8 4 4 2 5 6 18 30
25 25 26 26 26 27 27 28 28 28 28 27 27 25 25 17 10 6 5 15 16 25 19 14 15 7 7 4 6 7 12 14 9 8 2 5 7 7 7 4 7 9 11 9 10
25 26 27 27 27 28 29 29 30 30 30 29 27 26 27 10 8 7 4 22 10 13 14 9 6 6 7 12 9 8 12 15 13 9 8 6 4 5 7 9 6 10 21 17 14
26 27 27 27 29 30 30 31 32 32 31 30 29 25 19 8 17 25 27 18 12 11 18 11 8 8 12 5 12 10 8 13 13 8 6 7 8 7 5 10 7 7 13 16 16
26 28 29 30 30 31 32 34 35 36 36 33 29 25 15 20 18 28 24 21 14 14 14 13 7 10 7 9 15 5 14 15 14 15 7 7 12 5 3 10 6 8 14 14 16
26 28 29 29 30 31 32 34 35 37 39 38 30 24 17 29 16 14 16 23 19 19 10 18 16 5 1 14 14 8 15 14 13 5 8 6 13 9 16 7 8 10 10 13 17
28 30 30 31 32 33 35 37 38 41 41 38 28 20 14 19 20 35 26 18 17 15 17 15 15 5 6 4 7 5 6 17 11 9 6 7 21 10 16 14 17 15 10 12 15
30 31 30 31 34 37 39 42 40 36 36 28 22 13 13 11 9 30 27 29 25 26 20 13 6 8 4 6 5 6 6 5 7 7 5 17 19 18 14 11 16 18 13 12 10
30 30 31 32 34 36 42 38 28 25 12 9 10 4 10 7 6 20 21 29 16 11 10 10 6 7 5 11 22 16 5 11 10 6 15 22 23 3 8 7 12 16 12 10 13
29 31 32 33 34 36 42 24 10 5 9 6 16 17 32 44 34 18 15 14 20 14 15 16 11 16 25 24 18 15 15 18 11 13 14 19 24 18 17 8 7 8 9 11 12
30 31 32 34 34 36 20 8 12 14 18 13 19 27 48 24 18 27 23 11 15 27 19 10 18 24 21 16 17 15 17 21 13 9 6 12 19 8 17 16 13 10 10 10 6
31 31 32 36 36 22 20 26 19 22 10 16 17 15 10 13 26 33 10 11 11 25 21 26 17 24 20 18 20 21 21 21 15 1 3 4 17 11 7 7 7 10 13 12 13
32 31 34 37 21 14 24 18 29 20 6 9 5 5 4 11 7 18 24 17 8 6 15 19 26 18 20 21 21 21 20 19 17 4 13 11 15 17 8 14 17 20 11 14 15
32 33 35 31 31 17 21 29 17 4 6 8 6 5 9 4 10 7 29 14 24 22 6 3 14 23 18 23 22 18 17 12 12 12 10 10 6 16 9 22 26 20 19 18 19
33 34 37 32 28 27 22 19 8 3 8 6 8 19 18 23 14 8 4 10 7 19 15 24 5 6 26 16 15 10 3 2 3 11 17 20 14 25 13 24 17 19 20 23 20
34 35 37 31 12 26 20 2 2 4 7 8 6 17 20 25 21 13 9 3 8 13 19 28 28 6 4 6 2 7 8 8 8 10 12 15 13 22 7 20 21 18 16 18 18
34 36 37 29 19 13 4 2 4 7 8 9 13 19 10 20 5 7 6 7 8 10 4 14 10 22 17 13 3 19 22 10 11 5 10 5 9 12 19 20 25 20 7 6 10
34 31 24 19 10 5 1 2 7 7 7 14 19 16 12 5 2 3 4 6 2 5 6 8 10 1 10 12 20 6 11 9 5 1 4 4 5 8 12 9 10 6 8 11 10
24 18 13 8 9 3 2 12 8 16 20 18 13 6 4 5 5 6 3 2 4 5 9 2 5 7 2 5 5 12 7 5 6 14 19 7 4 6 11 10 9 8 7 7 8
9 5 7 8 7 2 3 6 8 11 15 6 4 6 6 7 4 3 6 6 3 6 5 1 4 3 10 9 13 5 7 5 3 8 13 8 4 7 14 2 8 6 5 7 9
3 4 5 17 2 2 2 4 19 22 20 16 9 8 9 3 4 5 5 4 5 3 10 4 3 4 3 0 1 2 14 7 7 6 4 3 10 6 6 5 6 6 7 6 7
3 4 5 2 1 4 6 12 13 13 11 5 3 5 2 3 3 4 4 6 6 3 3 5 3 2 3 3 3 3 7 8 4 1 13 5 5 3 4 3 5 5 6 8 9
3 3 4 1 2 4 9 14 11 8 15 6 5 4 2 2 4 6 7 5 9 12 17 6 3 2 3 2 4 2 3 10 9 10 14 17 21 4 6 4 4 5 8 11 9
3 3 4 4 5 7 9 8 18 13 5 10 2 4 5 3 4 4 4 7 7 7 3 2 4 2 4 3 3 4 4 6 11 14 6 2 4 4 5 4 4 1 7 10 11
2 1 2 6 7 5 10 6 14 15 8 7 5 9 9 4 6 10 6 6 5 4 5 3 4 2 3 1 2 3 4 6 6 8 9 12 20 2 3 3 4 4 4 8 10
4 3 1 7 3 2 4 7 17 19 8 13 15 11 5 6 5 11 11 13 8 9 6 4 3 1 4 3 2 5 4 3 3 4 4 3 3 3 3 4 6 8 8 8 8
Wind_Direction
9 6 6 3 1 358 354 351 349 347 345 340 339 332 329 306 311 309 270 257 251 263 263 267 217 221 239 214 210 118 128 240 239 225 245 307 189 339 151 120 100 30 136 206 162
7 5 2 358 355 352 347 344 342 341 339 337 335 331 328 317 303 289 285 276 259 256 240 227 220 204 208 212 211 158 175 220 213 225 264 285 206 182 148 147 176 60 41 125 149
5 3 1 358 354 348 342 337 334 333 330 329 328 329 328 327 293 242 68 350 330 225 232 238 249 200 217 193 213 202 220 230 261 266 331 307 293 191 145 201 205 182 170 162 159
0 358 354 352 350 346 341 336 332 328 324 321 322 323 326 308 263 194 240 338 337 208 214 236 256 224 207 216 211 241 221 229 257 261 293 280 279 277 179 211 147 203 175 166 177
355 350 349 347 346 341 337 333 329 323 319 316 314 318 331 252 243 246 273 287 305 222 206 203 230 228 233 220 231 246 243 245 252 253 258 277 246 225 278 271 244 135 163 179 180
350 350 349 346 343 339 333 328 324 318 314 309 308 311 303 262 254 250 257 263 240 212 220 209 207 213 272 240 246 248 241 256 247 246 227 256 265 181 280 263 241 163 179 187 187
347 348 346 344 340 336 329 324 318 311 307 301 301 300 271 249 236 237 259 236 240 222 230 231 242 244 203 246 276 253 260 270 244 222 215 207 255 211 229 232 245 222 200 193 195
344 343 342 340 337 333 329 324 316 310 303 296 293 280 260 269 267 237 225 228 237 229 235 251 265 265 209 262 316 280 263 242 244 218 229 174 247 234 234 223 229 233 207 198 199
340 338 338 338 335 332 328 324 318 314 306 296 284 227 262 293 253 251 249 238 247 251 233 232 238 221 212 207 275 221 249 228 241 225 238 202 253 235 236 223 225 227 222 203 206
336 335 334 334 332 331 329 327 329 319 341 324 227 238 255 270 339 334 275 234 223 231 205 193 210 206 204 200 221 222 216 232 229 215 214 235 242 242 215 208 225 227 225 200 200
335 335 334 332 332 328 330 334 347 330 13 250 268 275 277 279 286 269 295 324 233 236 199 190 197 203 217 219 228 226 214 237 238 228 246 241 249 224 237 266 226 237 223 212 201
331 331 332 332 329 323 325 341 310 312 304 265 252 250 250 262 270 260 250 256 221 226 210 181 212 216 217 219 227 225 231 243 258 242 272 282 271 237 223 241 240 229 226 219 194
330 330 329 329 326 314 333 312 324 332 286 298 248 254 251 221 242 254 192 234 253 236 203 207 206 219 217 213 219 225 225 234 236 188 202 25 284 265 253 246 231 232 226 216 197
330 329 327 326 323 301 304 299 325 317 278 282 255 268 72 320 274 271 229 211 215 259 242 209 216 199 210 215 210 226 223 231 233 201 247 167 265 258 229 238 240 243 223 223 212
329 327 325 325 305 296 293 306 321 344 287 268 276 135 320 100 310 319 317 207 230 228 232 250 215 215 210 209 202 227 236 226 217 209 242 221 245 257 185 241 240 234 234 223 220
328 324 321 321 309 294 309 308 305 237 249 280 305 308 331 324 311 276 268 248 231 242 248 258 231 254 222 217 201 217 116 115 208 223 241 234 215 267 220 233 244 231 223 227 210
328 323 315 309 282 310 312 338 252 217 324 278 303 323 315 303 307 300 264 216 250 205 227 243 242 215 199 219 163 179 196 224 216 211 239 223 201 239 209 239 236 234 226 225 211
328 321 318 309 311 304 19 320 257 249 237 291 313 318 286 304 320 322 359 300 234 245 268 223 263 195 192 214 169 200 202 217 230 189 239 168 213 238 240 252 256 247 225 249 184
328 323 311 318 323 245 311 250 220 257 292 306 314 283 291 336 320 313 272 279 325 340 229 221 229 139 169 200 191 192 214 224 262 175 277 197 279 297 255 230 255 246 207 204 171
327 314 290 312 319 101 217 263 248 277 288 285 272 218 255 295 343 343 268 223 283 259 287 259 237 202 91 96 202 197 168 200 209 244 254 230 238 226 265 235 243 229 201 162 147
317 325 277 299 330 69 248 246 290 293 304 292 284 272 260 281 224 284 272 295 356 326 326 327 289 298 131 199 182 166 207 212 173 211 235 250 244 220 253 270 236 231 196 153 137
292 288 303 305 4 238 267 248 302 300 297 277 243 249 260 264 262 233 249 247 12 53 340 273 221 284 139 124 121 159 214 194 208 232 227 184 251 181 212 258 277 228 163 127 113
258 273 316 169 288 297 281 286 290 294 296 299 271 243 206 315 281 256 291 296 335 33 23 326 284 326 352 24 36 219 206 219 215 23 228 185 257 341 299 299 284 160 118 114 113
283 278 313 233 210 241 307 305 305 289 293 271 274 286 286 283 252 283 293 309 345 302 295 276 294 178 206 165 163 250 252 212 211 230 248 232 246 327 324 303 315 103 124 126 126
229 263 197 281 297 293 302 286 301 322 302 290 291 244 281 271 324 258 282 313 300 312 29 245 271 238 264 218 160 216 216 225 228 240 250 271 227 274 273 239 217 191 118 133 137
251 222 329 266 281 270 300 279 300 316 319 301 277 335 314 252 208 278 287 295 264 346 350 312 276 351 274 284 178 284 257 251 253 256 251 251 274 153 325 267 123 148 137 162 165
240 230 222 271 283 275 262 304 307 311 298 300 307 309 300 270 246 279 270 268 261 285 287 259 261 330 277 317 285 343 312 281 295 18 309 262 311 172 216 218 190 187 179 176 184